クリステンセン彗星

P/2006 U5 ( Christensen )

English version
Home page
Total 6,336 html files since Dec. 4, 1995
Updated on May 25, 2008

---------------------------------------------------------------------

・ プロフィール

発見日 2006年10月27日
発見光度 18.0等
発見者 E. J. Christensen (Catalina Sky Survey)

・ 軌道要素

The following orbital elements are taken from MPC 59596:

Epoch 2007 Jan. 20.0 TT = JDT 2454120.5
T 2007 Jan. 18.9143 TT                                  MPC
q   2.325908             (2000.0)            P               Q
n   0.1486134      Peri.   98.3897      -0.2330663      -0.9724463
a   3.529914       Node     5.0972      +0.8670141      -0.2102670
e   0.341086       Incl.    3.4304      +0.4404164      -0.1006775
P   6.63
From 308 observations 2006 Oct. 27-2007 Apr. 11, mean residual 0".6.

・ 星図

・ 光度変化

        m1 = 12.5 + 5 logΔ + 10.0 log r

---------------------------------------------------------------------

軌道要素はMPCのEphemerides and Orbital Elementsに掲載されたものです。
星図は StellaNavigator Ver.2.0 for Windows (アストロアーツ 編著 / アスキー出版局刊) で作成したものです。
光度グラフはComet for Windowsで作成したものです。

---------------------------------------------------------------------

Copyright(C) 1995-2008 Seiichi Yoshida (comet@aerith.net). All rights reserved.